Overview Statistics Trail Chart Weather Telemetry Raw packets
 

This is the latest recevied weather packets stored in our database for station/object KI4NG. If no packets are shown the sender has not sent any weather packets the latest 10 day(s).

<< 93 94 95 96 97 98 99 >>
Time Temp. Humidity Pressure Rain* Wind** Luminosity Snow
1787927559 26.11° C 80% 1020.8 hPa 0 mm - 557 W/m² -
1787927254 25.56° C 82% 1020.9 hPa 0 mm - 528 W/m² -
1787926950 25.56° C 82% 1020.7 hPa 0 mm - 528 W/m² -
1787926645 25.56° C 84% 1021 hPa 0 mm - 501 W/m² -
1787926343 25° C 83% 1020.8 hPa 0 mm - 459 W/m² -
1787926038 25° C 84% 1020.9 hPa 0 mm - 398 W/m² -
1787925738 25° C 83% 1020.9 hPa 0 mm - 396 W/m² -
1787925431 24.44° C 87% 1020.7 hPa 0 mm - 343 W/m² -
1787925126 23.89° C 88% 1020.8 hPa 0 mm - 293 W/m² -
1787924824 23.89° C 88% 1020.9 hPa 0 mm - 300 W/m² -
1787924520 23.89° C 89% 1020.7 hPa 0 mm - 289 W/m² -
1787924215 23.33° C 91% 1020.6 hPa 0 mm - 289 W/m² -
1787923915 22.78° C 92% 1020.7 hPa 0 mm - 104 W/m² -
1787923609 23.33° C 91% 1020.3 hPa 0 mm - 154 W/m² -
1787923305 23.33° C 91% 1020.4 hPa 0 mm - 239 W/m² -
1787923005 22.78° C 92% 1020.4 hPa 0 mm - 125 W/m² -
1787922705 22.22° C 94% 1020.6 hPa 0 mm - 144 W/m² -
1787922399 21.67° C 96% 1020.4 hPa 0 mm - 151 W/m² -
1787922097 21.11° C 99% 1020.6 hPa 0 mm - 167 W/m² -
1787921797 20.56° C 99% 1020.3 hPa 0 mm - 138 W/m² -
1787921496 20° C 99% 1020.3 hPa 0 mm - 108 W/m² -
1787921190 19.44° C 99% 1020.4 hPa 0 mm - 114 W/m² -
1787920886 19.44° C 99% 1020.1 hPa 0 mm - 92 W/m² -
1787920581 18.89° C 99% 1020.1 hPa 0 mm - 81 W/m² -
1787920275 18.89° C 99% 1020.2 hPa 0 mm - 71 W/m² -

* Rain latest hour (hover to see other rain measurements)
** Current wind speed in m/s (hover to see current wind gust speed)